Content
SEND FEEDBACK

Daily
Averages
Monthly
Summary
United States of America

RUSHVILLE, INDIANA


Home > North America > United States > Indiana
Elevation: 988 feet     Latitude: 39 35N     Longitude: 085 26W

WEATHER
 
SELECT A DAY
Number of Records: 173,288;   Date Range: 10/15/98 - 9/22/14
 
SHARE

PRINT THIS DATA

[ ← Previous Day ]
WEATHER ALMANAC - APRIL 25, 2014
[ Next Day → ]
[ °C ]   °F
Weather ElementAverageHighLow
Temperature59.4 °F68 °F (4:53 pm)54 °F (11:53 pm)
Dewpoint48 °F55 °F (10:03 am)34 °F (1:53 am)
Humidity69.6 %90 % (8:44 am)32 % (5:53 pm)
Barometer29.73 in29.90 in (10:53 pm)29.58 in (5:53 am)
Wind Speed12 mph23 mph (1:53 pm)
Wind Gust29.9 mph (2:53 pm)
Weather ElementAverage
Visibility7.5 mi
Wind DirectionWSW (259.1 °)

Weather ElementTotal
Precipitation0.45 in
Heating Degree Days4 (Base 65)
Growing Degree Days11 (Base 50)
Averaged from 34 records on April 25, 2014
WEATHER CONDITIONS BREAKOUT
WIND DIRECTION BREAKOUT
WEATHER BY HOUR - APRIL 25, 2014
[ °C ]   °F
Local TimeTemperatureDewpointHumidityBarometerVisibilityWind DirectionWind SpeedGust SpeedPrecipitationEventsConditions
1:53 AM61.0 °F34.0 °F36 %29.68 in10.0 miSouth (170°)9.2 mphOvercast
2:53 AM60.1 °F39.0 °F46 %29.65 in10.0 miSSE (160°)8.1 mphOvercast
3:53 AM55.9 °F48.0 °F75 %29.63 in8.0 miSouth (170°)6.9 mph0.02 inRainLight Rain
4:53 AM55.9 °F51.1 °F84 %29.61 in9.0 miSE (140°)9.2 mph0.10 inRainLight Rain
5:53 AM55.9 °F52.0 °F87 %29.58 in10.0 miSE (140°)6.9 mph0.10 inOvercast
6:53 AM57.0 °F53.1 °F87 %29.60 in10.0 miSouth (180°)9.2 mphOvercast
7:25 AM57.0 °F54.0 °F89 %29.62 in6.0 miSSW (210°)6.9 mphOvercast
7:53 AM57.9 °F54.0 °F87 %29.62 in4.0 miSW (230°)8.1 mph0.01 inRainLight Rain
8:05 AM57.0 °F54.0 °F89 %29.64 in5.0 miWest (270°)9.2 mph0.00 inRainLight Rain
8:44 AM55.9 °F53.1 °F90 %29.65 in4.0 miWest (270°)6.9 mph0.00 inRainLight Rain
8:53 AM57.0 °F53.1 °F87 %29.65 in4.0 miWest (280°)8.1 mph0.01 inRainLight Rain
9:05 AM57.0 °F53.1 °F87 %29.66 in4.0 miWest (280°)9.2 mph0.00 inRainLight Rain
9:24 AM57.0 °F54.0 °F89 %29.67 in2.0 miWNW (300°)13.8 mph0.04 inRainRain
9:35 AM57.0 °F54.0 °F89 %29.67 in4.0 miWNW (300°)13.8 mph0.05 inRainLight Rain
9:53 AM57.9 °F54.0 °F87 %29.67 in4.0 miWNW (300°)13.8 mph0.06 inRainLight Rain
10:03 AM57.9 °F55.0 °F90 %29.67 in4.0 miWNW (300°)11.5 mph0.01 inRainLight Rain
10:10 AM57.9 °F55.0 °F90 %29.68 in5.0 miWNW (300°)11.5 mph0.01 inRainLight Rain
10:27 AM57.9 °F55.0 °F90 %29.69 in7.0 miWNW (290°)12.7 mph0.02 inOvercast
10:53 AM57.9 °F54.0 °F87 %29.70 in6.0 miWNW (300°)15.0 mph0.02 inOvercast
11:49 AM57.2 °F51.8 °F82 %29.75 in6.0 miNW (320°)16.1 mphHaze
11:53 AM57.9 °F52.0 °F81 %29.75 in6.0 miNW (320°)16.1 mphHaze
12:53 PM57.0 °F50.0 °F77 %29.78 in7.0 miNW (320°)19.6 mphOvercast
1:41 PM62.1 °F50.0 °F65 %29.81 in10.0 miNW (310°)21.9 mph26.5 mphScattered Clouds
1:53 PM62.1 °F46.9 °F58 %29.81 in10.0 miNW (310°)23.0 mph28.8 mphPartly Cloudy
2:53 PM64.9 °F46.0 °F50 %29.84 in10.0 miNW (310°)19.6 mph29.9 mphPartly Cloudy
3:53 PM66.0 °F43.0 °F43 %29.85 in10.0 miNW (310°)21.9 mph27.6 mphClear
4:53 PM68.0 °F42.1 °F39 %29.84 in10.0 miWNW (300°)19.6 mph28.8 mphClear
5:53 PM68.0 °F37.0 °F32 %29.85 in10.0 miWNW (300°)13.8 mph26.5 mphClear
6:53 PM68.0 °F37.0 °F32 %29.86 in10.0 miWNW (290°)13.8 mphClear
7:53 PM66.0 °F37.9 °F36 %29.86 in10.0 miWest (270°)9.2 mphClear
8:53 PM60.1 °F39.0 °F46 %29.87 in10.0 miSW (230°)5.8 mphClear
9:53 PM60.1 °F39.0 °F46 %29.88 in10.0 miSSW (210°)5.8 mphClear
10:53 PM55.9 °F39.9 °F55 %29.90 in10.0 miSSW (210°)6.9 mphClear
11:53 PM54.0 °F39.9 °F59 %29.89 in10.0 miSSW (210°)5.8 mphClear
Hourly data recorded from KGEZ, located miles away from Rushville, Indiana







STORIES FROM OUR PARTNERS